Location: Astronomy Adventures Observing Site
(35.3995°N, 106.1279°W)
Time: 19:45:08
(UTC-07:00)

ISS - Visible Passes

Search period start: 20 January 2022 00:00
Search period end: 30 January 2022 00:00
Orbit: 413 x 422 km, 51.6° (Epoch: 20 January)

Date Brightness Start Highest point End Pass type
(mag) Time Alt. Az. Time Alt. Az. Time Alt. Az.
20 Jan -2.4 17:56:57 10° WSW 18:00:01 34° NW 18:03:06 10° NNE visible
21 Jan -1.0 18:48:31 10° NW 18:49:20 11° NNW 18:50:08 10° N visible
22 Jan -1.3 17:59:04 10° WNW 18:01:05 15° NNW 18:03:06 10° N visible
